Location: White Mills Observatory
(37.5374°N, 86.0303°W)
Time: 09:58:02
(UTC-04:00)

Amateur Radio Satellites - All Passes

Search period start: 28 March 2017 09:28
Search period end: 29 March 2017 09:28
Location: White Mills Observatory, 37.5374°N, 86.0303°W

Satellite Date Start Highest point End Downlink Frequencies (MHz)
Time Altitude Azimuth
CUTE 1.7 + AOD 2 28 Mar 09:31:39 09:35:50 66° 284° (WNW) 09:40:02 437.475
CUBEBUG 2 28 Mar 09:33:23 09:37:40 52° 99° (E) 09:41:47 437.445
ZACube-1 28 Mar 09:33:32 09:36:15 17° 93° (E) 09:38:55 437.345
PCSat 28 Mar 09:34:25 09:39:05 31° 108° (ESE) 09:43:48 145.827
FO-29 28 Mar 09:42:32 09:46:39 16° 59° (ENE) 09:50:36 435.910
HO-68 28 Mar 09:42:39 09:49:50 79° 287° (WNW) 09:57:00 435.675
AO-73 28 Mar 09:59:59 10:03:43 31° 97° (E) 10:07:22 145.935
TIGRISAT 28 Mar 10:24:12 10:28:15 30° 70° (ENE) 10:32:17 435.000
UWE-3 28 Mar 10:32:10 10:36:19 51° 286° (WNW) 10:40:21 435.000/436.395/437.385
UNISAT 6 28 Mar 10:34:35 10:38:58 41° 72° (ENE) 10:43:20 437.425
AAUSAT CUBESAT 2 28 Mar 10:35:43 10:39:34 38° 287° (WNW) 10:43:25 437.432
PRISM 28 Mar 10:47:01 10:51:03 66° 259° (W) 10:55:07 437.425
JUGNU 28 Mar 10:54:42 10:57:03 12° 186° (S) 10:59:26 437.505
Oscar 11 28 Mar 10:57:23 11:01:38 62° 285° (WNW) 11:05:53 .
SEEDS 28 Mar 10:59:19 11:00:33 11° 295° (WNW) 11:01:47 437.485
ZACube-1 28 Mar 11:08:49 11:12:37 34° 288° (WNW) 11:16:22 437.345
CUBEBUG 2 28 Mar 11:11:53 11:13:45 13° 296° (WNW) 11:15:36 437.445
SRMSAT 28 Mar 11:13:16 11:15:31 12° 173° (S) 11:17:48 437.500
PCSat 28 Mar 11:17:28 11:22:22 34° 305° (NW) 11:27:19 145.827
FO-29 28 Mar 11:22:50 11:30:41 80° 74° (ENE) 11:38:03 435.910
RS-15 28 Mar 11:30:14 11:37:19 18° 97° (E) 11:44:30 29.354- 29.394
HO-68 28 Mar 11:33:01 11:36:25 14° 305° (NW) 11:39:49 435.675
AO-73 28 Mar 11:36:46 11:39:43 19° 292° (WNW) 11:42:37 145.935
DELFI C3 28 Mar 11:37:35 11:41:34 69° 283° (WNW) 11:45:32 145.870
ESTCUBE 1 28 Mar 12:00:27 12:01:54 11° 91° (E) 12:03:22 437.505/2401.250
TIGRISAT 28 Mar 12:01:01 12:04:52 25° 265° (W) 12:08:43 435.000
NANOSAT C BR1 28 Mar 12:10:58 12:14:43 31° 71° (ENE) 12:18:30 145.865
UNISAT 6 28 Mar 12:12:37 12:15:47 18° 267° (W) 12:18:58 437.425
EO-79 28 Mar 12:16:34 12:20:33 40° 72° (ENE) 12:24:34 145.935-145.965
AIST 2D 28 Mar 12:17:10 12:20:41 74° 77° (ENE) 12:24:13 435.315
LO-87 28 Mar 12:36:10 12:39:49 62° 101° (ESE) 12:43:24 145.935 - 145.965
POLYITAN 1 28 Mar 12:44:59 12:49:17 88° 76° (ENE) 12:53:36 437.675
QB50P2 28 Mar 12:49:45 12:54:02 75° 259° (W) 12:58:19 145.880/145.840
Oscar 19 28 Mar 12:57:41 12:59:24 12° 61° (ENE) 13:01:09 437.125/150
DUCHIFAT 1 28 Mar 12:58:46 13:03:02 78° 259° (W) 13:07:18 145.980
SRMSAT 28 Mar 13:01:01 13:03:51 14° 183° (S) 13:06:40 437.500
VELOX 1 28 Mar 13:02:59 13:05:52 17° 93° (E) 13:08:45 145.980
BUGSAT 1 28 Mar 13:06:53 13:10:50 40° 72° (ENE) 13:14:49 437.445
FO-29 28 Mar 13:11:01 13:16:08 19° 269° (W) 13:21:08 435.910
50 SAT 28 Mar 13:23:03 13:25:00 14° 94° (E) 13:26:57 437.505
Gurwin Techsat 1B 28 Mar 13:27:26 13:30:01 14° 62° (ENE) 13:32:35 435.225
NO-84 28 Mar 13:28:50 13:30:40 15° 34° (NNE) 13:32:36 435.350 FM
SPROUT 28 Mar 13:31:07 13:34:54 30° 97° (E) 13:38:39 437.525
ESTCUBE 1 28 Mar 13:34:35 13:39:02 59° 286° (WNW) 13:43:28 437.505/2401.250
RS-15 28 Mar 13:35:50 13:47:45 82° 117° (ESE) 14:00:08 29.354- 29.394
NANOSAT C BR1 28 Mar 13:47:22 13:50:27 19° 266° (W) 13:53:34 145.865
EO-79 28 Mar 13:53:55 13:56:27 15° 267° (W) 13:59:00 145.935-145.965
SO-50 28 Mar 14:00:35 14:02:19 12° 108° (ESE) 14:04:04 436.795
DX 1 28 Mar 14:08:29 14:12:31 35° 98° (E) 14:16:32 434.975-435.025
Oscar 19 28 Mar 14:32:54 14:38:00 81° 257° (WSW) 14:43:09 437.125/150
VELOX 1 28 Mar 14:38:17 14:42:27 39° 288° (WNW) 14:46:36 145.980
BUGSAT 1 28 Mar 14:43:52 14:46:20 15° 267° (W) 14:48:49 437.445
UKube-1 28 Mar 14:44:05 14:48:25 64° 102° (ESE) 14:52:42 .
ITAMSAT 1 28 Mar 14:48:32 14:50:50 13° 61° (ENE) 14:53:09 435.822/435.867
AO-7 28 Mar 14:54:49 15:01:13 26° 57° (ENE) 15:07:36 .
50 SAT 28 Mar 14:55:02 14:58:05 28° 288° (WNW) 15:01:06 437.505
Gurwin Techsat 1B 28 Mar 15:03:59 15:09:17 73° 258° (WSW) 15:14:37 435.225
NO-84 28 Mar 15:05:14 15:08:25 56° 227° (SW) 15:11:52 435.350 FM
SPROUT 28 Mar 15:07:24 15:10:35 21° 292° (WNW) 15:13:46 437.525
SO-50 28 Mar 15:37:35 15:42:14 66° 303° (WNW) 15:46:49 436.795
BEESAT 28 Mar 15:38:51 15:42:00 18° 93° (E) 15:45:10 436.000
DX 1 28 Mar 15:45:20 15:48:25 19° 293° (WNW) 15:51:29 434.975-435.025
RS-15 28 Mar 15:51:04 16:01:42 34° 322° (NW) 16:12:36 29.354- 29.394
ITUPSAT 1 28 Mar 15:55:53 15:59:52 26° 96° (E) 16:03:49 437.325
UKube-1 28 Mar 16:22:43 16:23:51 11° 297° (WNW) 16:24:59 .
ITAMSAT 1 28 Mar 16:24:23 16:29:37 76° 257° (WSW) 16:34:52 435.822/435.867
O/OREOS (USA 219) 28 Mar 16:33:31 16:36:24 17° 100° (E) 16:39:18 437.305
AO-7 28 Mar 16:44:56 16:53:14 71° 255° (WSW) 17:01:33 .
MOZHAYETS 4 28 Mar 17:12:37 17:17:11 77° 102° (ESE) 17:21:43
BEESAT 28 Mar 17:15:28 17:19:57 43° 288° (WNW) 17:24:25 436.000
ITUPSAT 1 28 Mar 17:33:32 17:37:37 29° 291° (WNW) 17:41:41 437.325
YUBILEINY 28 Mar 17:46:48 17:48:24 11° 59° (ENE) 17:50:00 435.215
CUBESAT XI-V 28 Mar 18:10:46 18:15:19 50° 100° (E) 18:19:51 437.345
O/OREOS (USA 219) 28 Mar 18:11:10 18:15:25 40° 295° (WNW) 18:19:45 437.305
RS-15 28 Mar 18:12:22 18:19:51 17° 356° (N) 18:27:19 29.354- 29.394
KKS-1 28 Mar 18:14:18 18:18:47 72° 101° (E) 18:23:13 437.445
DOVE 4 28 Mar 18:16:07 18:20:13 30° 69° (ENE) 18:24:31 437.250
PCSat 28 Mar 18:24:20 18:28:08 19° 48° (NE) 18:31:55 145.827
HO-68 28 Mar 18:27:33 18:29:16 11° 52° (NE) 18:30:59 435.675
XW-2F 28 Mar 18:29:45 18:32:49 24° 71° (ENE) 18:35:53 145.980 - 146.000
CUTE-I 28 Mar 18:30:48 18:35:31 33° 68° (ENE) 18:40:16 437.470
LilacSat-2 28 Mar 18:34:58 18:38:21 30° 72° (ENE) 18:41:43 437.200
STARS 28 Mar 18:44:05 18:48:30 65° 101° (ESE) 18:52:52 437.465
AO-7 28 Mar 18:45:27 18:47:14 11° 271° (W) 18:49:01 .
NUDT-PHONESAT 28 Mar 18:48:00 18:51:22 33° 73° (ENE) 18:54:44 437.300
XW-2D 28 Mar 18:56:26 19:00:10 57° 75° (ENE) 19:03:54 145.860 - 145.880
KAITUO 1B 28 Mar 18:58:01 19:01:36 45° 75° (ENE) 19:05:10 145.475/437.950
XW-2B 28 Mar 19:02:23 19:06:09 67° 76° (ENE) 19:09:56 145.730 - 145.750
XW-2C 28 Mar 19:12:38 19:16:27 87° 257° (WSW) 19:20:16 145.795 - 145.815
ISS 28 Mar 19:33:02 19:33:37 10° 127° (SE) 19:34:12 437.550
YUBILEINY 28 Mar 19:38:25 19:47:04 65° 80° (E) 19:55:42 435.215
CUBESAT XI-V 28 Mar 19:49:34 19:52:15 15° 295° (WNW) 19:54:56 437.345
M-CUBED/EXP-1 PRIME 28 Mar 19:53:33 19:58:00 41° 103° (ESE) 20:02:22 437.505
KKS-1 28 Mar 19:53:52 19:54:42 10° 298° (WNW) 19:55:31 437.445
DOVE 4 28 Mar 19:53:55 19:57:50 26° 266° (W) 20:01:59 437.250
XW-2A 28 Mar 19:56:25 19:59:36 36° 74° (ENE) 20:02:48 145.665 - 145.685
STRAND 1 28 Mar 19:59:57 20:02:54 15° 92° (E) 20:05:48 437.568
XW-2F 28 Mar 20:04:06 20:06:54 19° 265° (W) 20:09:42 145.980 - 146.000
PCSat 28 Mar 20:06:36 20:11:59 64° 246° (WSW) 20:17:19 145.827
HO-68 28 Mar 20:08:35 20:15:36 64° 71° (ENE) 20:22:40 435.675
LilacSat-2 28 Mar 20:10:19 20:12:40 16° 266° (W) 20:15:00 437.200
CUTE-I 28 Mar 20:10:54 20:15:30 29° 264° (W) 20:20:10 437.470
SEEDS 28 Mar 20:11:05 20:14:42 30° 71° (ENE) 20:18:20 437.485
CUTE 1.7 + AOD 2 28 Mar 20:21:54 20:26:03 64° 75° (ENE) 20:30:13 437.475
STARS 28 Mar 20:22:59 20:24:15 11° 297° (WNW) 20:25:30 437.465
NUDT-PHONESAT 28 Mar 20:23:25 20:25:22 14° 267° (W) 20:27:20 437.300
ZACube-1 28 Mar 20:28:23 20:30:15 12° 65° (ENE) 20:32:07 437.345
RS-15 28 Mar 20:28:33 20:38:37 28° 32° (NNE) 20:48:23 29.354- 29.394
CUBEBUG 2 28 Mar 20:28:51 20:33:12 36° 72° (ENE) 20:37:31 437.445
AO-73 28 Mar 20:53:38 20:57:02 21° 69° (ENE) 21:00:23 145.935
Tancredo 1 28 Mar 20:55:32 20:58:40 75° 321° (NW) 21:01:50 437.200
ISS 28 Mar 21:06:25 21:09:39 67° 321° (NW) 21:12:54 437.550
AO-85 28 Mar 21:19:05 21:23:34 78° 119° (ESE) 21:27:45 145.980
AAUSAT CUBESAT 2 28 Mar 21:23:10 21:27:15 79° 258° (WSW) 21:31:23 437.432
UWE-3 28 Mar 21:26:04 21:30:44 87° 255° (WSW) 21:35:22 435.000/436.395/437.385
M-CUBED/EXP-1 PRIME 28 Mar 21:28:39 21:32:05 21° 298° (WNW) 21:35:30 437.505
XW-2A 28 Mar 21:31:58 21:32:31 10° 268° (W) 21:33:04 145.665 - 145.685
YUBILEINY 28 Mar 21:36:34 21:43:05 24° 278° (W) 21:49:38 435.215
STRAND 1 28 Mar 21:37:24 21:42:23 55° 287° (WNW) 21:47:20 437.568
SEEDS 28 Mar 21:47:24 21:50:24 19° 266° (W) 21:53:24 437.485
Oscar 11 28 Mar 21:49:41 21:53:59 76° 76° (ENE) 21:58:17 .
HO-68 28 Mar 21:58:33 22:03:46 22° 267° (W) 22:09:01 435.675
ZACube-1 28 Mar 22:01:30 22:06:00 60° 260° (W) 22:10:27 437.345
CUBEBUG 2 28 Mar 22:06:18 22:09:51 21° 266° (W) 22:13:24 437.445
BEESAT 3 28 Mar 22:13:15 22:16:31 26° 113° (ESE) 22:19:52 437.485
DELFI C3 28 Mar 22:20:51 22:24:36 46° 74° (ENE) 22:28:23 145.870
AO-73 28 Mar 22:28:58 22:33:02 32° 263° (W) 22:37:04 145.935
PRISM 28 Mar 22:30:59 22:33:57 19° 95° (E) 22:36:54 437.425
Tancredo 1 28 Mar 22:33:42 22:35:15 13° 338° (NNW) 22:36:48 437.200
BEESAT 2 28 Mar 22:35:09 22:37:48 17° 110° (ESE) 22:40:28 435.950
RS-15 28 Mar 22:41:03 22:53:25 81° 59° (ENE) 23:05:08 29.354- 29.394
ISS 28 Mar 22:45:04 22:46:38 13° 339° (NNW) 22:48:13 437.550
AO-85 28 Mar 23:02:52 23:04:23 12° 315° (NW) 23:05:52 145.980
LO-87 28 Mar 23:11:10 23:13:43 18° 69° (ENE) 23:16:16 145.935 - 145.965
BEESAT 3 28 Mar 23:50:52 23:54:04 24° 309° (NW) 23:57:20 437.485
TIGRISAT 28 Mar 23:53:38 23:58:02 81° 104° (ESE) 00:02:18 435.000
DELFI C3 28 Mar 23:58:45 23:59:38 11° 269° (W) 00:00:32 145.870
VELOX 1 28 Mar 23:59:34 00:01:24 12° 64° (ENE) 00:03:15 145.980
UNISAT 6 29 Mar 00:04:38 00:09:00 69° 284° (WNW) 00:13:15 437.425
PRISM 29 Mar 00:05:34 00:09:14 31° 289° (WNW) 00:12:55 437.425
SO-50 29 Mar 00:10:43 00:15:11 61° 57° (ENE) 00:19:37 436.795
BEESAT 2 29 Mar 00:11:38 00:15:16 34° 306° (NW) 00:18:58 435.950
FO-29 29 Mar 00:21:02 00:26:54 82° 102° (ESE) 00:32:12 435.910
SPROUT 29 Mar 00:23:07 00:26:08 19° 68° (ENE) 00:29:10 437.525
ESTCUBE 1 29 Mar 00:31:43 00:36:12 84° 259° (W) 00:40:41 437.505/2401.250
POLYITAN 1 29 Mar 00:33:00 00:35:39 16° 93° (E) 00:38:17 437.675
QB50P2 29 Mar 00:37:21 00:40:29 20° 94° (E) 00:43:35 145.880/145.840
LO-87 29 Mar 00:44:06 00:46:59 23° 264° (W) 00:49:56 145.935 - 145.965
DUCHIFAT 1 29 Mar 00:45:38 00:48:36 18° 94° (E) 00:51:31 145.980
RS-15 29 Mar 00:55:20 01:04:25 26° 259° (W) 01:13:15 29.354- 29.394
DX 1 29 Mar 01:02:20 01:05:51 25° 69° (ENE) 01:09:23 434.975-435.025
AIST 2D 29 Mar 01:17:18 01:20:45 64° 284° (WNW) 01:24:11 435.315
50 SAT 29 Mar 01:25:53 01:29:18 73° 77° (ENE) 01:32:46 437.505
NANOSAT C BR1 29 Mar 01:32:07 01:36:21 77° 102° (ESE) 01:40:31 145.865
VELOX 1 29 Mar 01:32:59 01:37:19 58° 259° (W) 01:41:42 145.980
UKube-1 29 Mar 01:36:28 01:40:30 41° 72° (ENE) 01:44:34 .
EO-79 29 Mar 01:38:24 01:42:38 82° 285° (WNW) 01:46:50 145.935-145.965
Tancredo 1 29 Mar 01:48:56 01:50:00 11° 19° (NNE) 01:51:04 437.200
SO-50 29 Mar 01:53:18 01:55:04 12° 252° (WSW) 01:56:50 436.795
SPROUT 29 Mar 01:57:52 02:01:47 34° 263° (W) 02:05:43 437.525
ISS 29 Mar 02:00:35 02:02:07 13° 20° (NNE) 02:03:40 437.550
POLYITAN 1 29 Mar 02:07:40 02:11:33 36° 288° (WNW) 02:15:23 437.675
FO-29 29 Mar 02:08:43 02:11:00 12° 303° (WNW) 02:13:12 435.910
QB50P2 29 Mar 02:12:35 02:16:17 30° 289° (WNW) 02:19:56 145.880/145.840
DUCHIFAT 1 29 Mar 02:20:34 02:24:17 31° 289° (WNW) 02:27:59 145.980
BUGSAT 1 29 Mar 02:25:28 02:29:39 89° 268° (W) 02:33:44 437.445
DX 1 29 Mar 02:38:16 02:41:54 26° 263° (W) 02:45:35 434.975-435.025
BEESAT 29 Mar 02:43:41 02:46:48 18° 65° (ENE) 02:49:55 436.000
O/OREOS (USA 219) 29 Mar 02:44:04 02:47:54 25° 61° (ENE) 02:51:40 437.305
Oscar 19 29 Mar 02:46:29 02:51:23 41° 99° (E) 02:56:16 437.125/150
ITUPSAT 1 29 Mar 03:00:49 03:04:44 25° 68° (ENE) 03:08:38 437.325
UKube-1 29 Mar 03:14:10 03:16:41 15° 267° (W) 03:19:13 .
Gurwin Techsat 1B 29 Mar 03:22:14 03:27:25 52° 100° (E) 03:32:35 435.225
Tancredo 1 29 Mar 03:23:34 03:26:42 53° 37° (NE) 03:29:50 437.200
ISS 29 Mar 03:35:51 03:39:08 64° 38° (NE) 03:42:24 437.550
MOZHAYETS 4 29 Mar 04:12:13 04:16:42 57° 74° (ENE) 04:21:13
BEESAT 29 Mar 04:19:36 04:24:11 46° 260° (W) 04:28:47 436.000
O/OREOS (USA 219) 29 Mar 04:23:16 04:27:15 29° 257° (WSW) 04:31:12 437.305
Oscar 19 29 Mar 04:26:29 04:30:23 22° 294° (WNW) 04:34:18 437.125/150
ITUPSAT 1 29 Mar 04:38:11 04:42:24 30° 263° (W) 04:46:38 437.325
ITAMSAT 1 29 Mar 04:39:22 04:44:20 44° 100° (E) 04:49:15 435.822/435.867
AO-7 29 Mar 04:48:53 04:56:45 45° 101° (E) 05:04:33 .
Tancredo 1 29 Mar 05:01:01 05:02:28 13° 232° (SW) 05:03:55 437.200
Gurwin Techsat 1B 29 Mar 05:03:18 05:06:55 19° 296° (WNW) 05:10:32 435.225
KKS-1 29 Mar 05:10:06 05:14:25 50° 73° (ENE) 05:18:46 437.445
CUBESAT XI-V 29 Mar 05:12:06 05:16:21 38° 72° (ENE) 05:20:36 437.345
ISS 29 Mar 05:14:08 05:15:12 11° 233° (SW) 05:16:16 437.550
STARS 29 Mar 05:38:29 05:42:41 44° 72° (ENE) 05:46:55 437.465
AO-85 29 Mar 05:52:14 05:55:49 33° 54° (NE) 05:59:30 145.980
MOZHAYETS 4 29 Mar 05:52:20 05:54:11 12° 269° (W) 05:56:02
DOVE 4 29 Mar 06:19:26 06:20:34 11° 88° (E) 06:21:42 437.250
ITAMSAT 1 29 Mar 06:19:39 06:23:27 21° 295° (WNW) 06:27:14 435.822/435.867
NO-84 29 Mar 06:22:18 06:24:59 32° 130° (SE) 06:27:36 435.350 FM
BEESAT 3 29 Mar 06:33:07 06:34:22 11° 44° (NE) 06:35:37 437.485
M-CUBED/EXP-1 PRIME 29 Mar 06:37:59 06:41:19 32° 66° (ENE) 06:44:56 437.505
AO-7 29 Mar 06:41:52 06:49:20 39° 298° (WNW) 06:56:48 .
YUBILEINY 29 Mar 06:46:24 06:49:48 13° 76° (ENE) 06:53:11 435.215
KKS-1 29 Mar 06:49:07 06:51:14 13° 268° (W) 06:53:23 437.445
XW-2C 29 Mar 06:49:36 06:50:29 11° 92° (E) 06:51:21 145.795 - 145.815
CUBESAT XI-V 29 Mar 06:50:43 06:53:50 18° 267° (W) 06:56:58 437.345
CUTE-I 29 Mar 06:51:03 06:53:53 14° 91° (E) 06:56:43 437.470
STRAND 1 29 Mar 07:13:50 07:17:27 20° 65° (ENE) 07:21:02 437.568
STARS 29 Mar 07:16:43 07:19:13 15° 267° (W) 07:21:45 437.465
AO-85 29 Mar 07:33:13 07:35:58 18° 248° (WSW) 07:38:46 145.980
XW-2F 29 Mar 07:37:05 07:40:40 44° 99° (E) 07:44:14 145.980 - 146.000
HO-68 29 Mar 07:42:02 07:44:17 12° 89° (E) 07:46:32 435.675
LilacSat-2 29 Mar 07:43:40 07:47:24 61° 101° (E) 07:51:07 437.200
DOVE 4 29 Mar 07:53:30 07:58:50 81° 284° (WNW) 08:03:59 437.250
NUDT-PHONESAT 29 Mar 07:53:48 07:57:26 61° 101° (E) 08:01:04 437.300
NO-84 29 Mar 08:00:42 08:02:35 16° 326° (NW) 08:04:26 435.350 FM
KAITUO 1B 29 Mar 08:04:48 08:08:30 89° 98° (E) 08:12:11 145.475/437.950
XW-2D 29 Mar 08:04:50 08:08:33 69° 285° (WNW) 08:12:16 145.860 - 145.880
BEESAT 3 29 Mar 08:08:27 08:12:29 76° 241° (WSW) 08:16:26 437.485
CUTE 1.7 + AOD 2 29 Mar 08:10:24 08:12:18 13° 92° (E) 08:14:12 437.475
XW-2B 29 Mar 08:10:53 08:14:35 59° 284° (WNW) 08:18:15 145.730 - 145.750
M-CUBED/EXP-1 PRIME 29 Mar 08:13:31 08:15:54 16° 263° (W) 08:18:24 437.505
XW-2C 29 Mar 08:21:19 08:24:53 42° 286° (WNW) 08:28:24 145.795 - 145.815
CUTE-I 29 Mar 08:29:03 08:34:20 63° 286° (WNW) 08:39:34 437.470
BEESAT 2 29 Mar 08:30:36 08:34:39 70° 58° (ENE) 08:38:40 435.950
YUBILEINY 29 Mar 08:36:20 08:45:04 79° 94° (E) 08:53:47 435.215
JUGNU 29 Mar 08:51:12 08:53:45 13° 176° (S) 08:56:19 437.505
STRAND 1 29 Mar 08:51:17 08:56:13 47° 260° (W) 09:01:12 437.568
XW-2A 29 Mar 08:52:39 08:55:58 50° 100° (E) 08:59:13 145.665 - 145.685
PCSat 29 Mar 09:04:20 09:08:22 22° 106° (ESE) 09:12:26 145.827
AAUSAT CUBESAT 2 29 Mar 09:08:00 09:10:54 18° 94° (E) 09:13:47 437.432
XW-2F 29 Mar 09:13:21 09:14:23 11° 294° (WNW) 09:15:24 145.980 - 146.000
UWE-3 29 Mar 09:18:42 09:21:54 20° 94° (E) 09:25:01 435.000/436.395/437.385
PRISM 29 Mar 09:20:28 09:21:26 11° 64° (ENE) 09:22:23 437.425
